WE3C Weather Reports


time (UTC)temp
C
wind
direction
speed
KPH
gust
KPH
rain 1hr
cm
rain 24hr
cm
rain mn
cm
humidity
%
barometer
mb
20260510054543 10 337 0.0 0.0 0.00 0.00 0.00 71 1016.7
20260510053056 10 140 0.0 0.0 0.00 0.00 0.00 71 1015.8
20260510051546 10 142 0.0 0.0 0.00 0.00 0.00 71 1015.9
20260510050038 10 142 0.0 0.0 0.00 0.00 0.00 71 1016.1
20260510044537 10 138 0.0 0.0 0.00 0.00 0.00 71 1016.0
20260510043045 10 360 0.0 0.0 0.00 0.00 0.00 71 1016.1
20260510041535 10 136 0.0 0.0 0.00 0.00 0.00 72 1016.1
20260510040039 10 142 0.0 0.0 0.00 0.00 0.00 72 1016.3
20260510034528 11 139 0.0 0.0 0.00 0.00 0.00 72 1016.2
20260510033027 11 143 0.0 0.0 0.00 0.00 0.00 72 1016.2
20260510031527 11 360 0.0 0.0 0.00 0.00 0.00 74 1016.3
20260510030026 11 360 0.0 0.0 0.00 0.00 0.00 73 1016.1
20260510024526 11 360 0.0 0.0 0.00 0.00 0.00 73 1016.1
20260510023026 11 360 0.0 0.0 0.00 0.00 0.00 73 1016.0
20260510021537 11 134 0.0 0.0 0.00 0.00 0.00 73 1016.0
20260510020024 12 360 0.0 0.0 0.00 0.00 0.00 73 1015.7
20260510014526 12 360 0.0 0.0 0.00 0.00 0.00 74 1015.7
20260510013026 12 360 0.0 0.0 0.00 0.00 0.00 74 1015.8
20260510011532 12 360 0.0 0.0 0.00 0.00 0.00 75 1015.5
20260510010022 12 138 0.0 0.0 0.00 0.00 0.00 76 1015.5
20260510004527 12 360 0.0 0.0 0.00 0.00 0.00 78 1015.4
20260510003021 12 360 0.0 0.0 0.00 0.00 0.00 79 1015.2
20260510001520 12 360 0.0 0.0 0.00 0.00 0.00 80 1015.1
20260510000028 12 135 0.0 0.0 0.00 0.00 0.00 80 1014.9
20260509234520 13 138 0.0 0.0 0.00 0.00 0.00 80 1014.9
20260509233019 13 139 0.0 0.0 0.00 0.00 0.00 80 1014.9
20260509231518 13 172 0.0 0.0 0.00 0.00 0.00 80 1014.9
20260509230018 13 228 0.0 0.0 0.00 0.00 0.00 80 1015.0
20260509224518 13 360 0.0 0.0 0.00 0.00 0.00 79 1014.8
20260509223017 13 270 0.0 0.0 0.00 0.00 0.00 79 1014.7
20260509221518 13 273 0.0 0.0 0.00 0.00 0.00 80 1014.7
20260509220019 13 273 0.0 0.0 0.00 0.00 0.00 80 1014.8
20260509214513 13 292 0.0 0.0 0.00 0.00 0.00 80 1015.2
20260509213024 13 285 0.0 0.0 0.00 0.00 0.00 80 1015.1
20260509211511 12 296 0.0 0.0 0.00 0.00 0.00 79 1015.0
20260509210011 12 296 0.0 0.0 0.00 0.00 0.00 79 1015.0
20260509204509 13 296 0.0 0.0 0.00 0.00 0.00 80 1015.3
20260509203015 13 285 0.0 0.0 0.00 0.00 0.00 80 1015.5
20260509201507 13 264 0.0 0.0 0.00 0.00 0.00 79 1015.5
20260509200007 12 360 0.0 0.0 0.00 0.00 0.00 78 1015.4
20260509194505 12 204 0.0 0.0 0.00 0.00 0.00 74 1015.4
20260509193004 12 203 0.0 0.0 0.00 0.00 0.00 73 1015.7
20260509191503 12 203 0.0 0.0 0.00 0.00 0.00 73 1015.8
20260509190001 11 204 0.0 0.0 0.00 0.00 0.00 74 1015.8
20260509184503 11 302 0.0 0.0 0.00 0.00 0.00 75 1016.4
20260509183103 11 301 0.0 0.0 0.00 0.00 0.00 76 1016.7
20260509181601 11 304 0.0 0.0 0.00 0.00 0.00 75 1016.5
20260509180104 11 303 0.0 0.0 0.00 0.00 0.00 76 1016.7
20260509174621 11 304 0.0 0.0 0.00 0.00 0.00 76 1016.7
20260509173056 11 304 0.0 0.0 0.00 0.00 0.00 77 1016.8
20260509171552 11 313 0.0 0.0 0.00 0.00 0.00 76 1016.7
20260509170054 11 332 0.0 0.0 0.00 0.00 0.00 77 1016.3
20260509164553 11 315 0.0 0.0 0.00 0.00 0.00 78 1016.4
20260509163056 12 282 0.0 0.0 0.00 0.00 0.00 80 1016.4
20260509161551 12 360 0.0 0.0 0.00 0.00 0.00 80 1016.8
20260509160050 12 213 0.0 0.0 0.00 0.00 0.00 79 1017.1
20260509154549 13 360 0.0 0.0 0.00 0.00 0.00 77 1017.3
20260509153056 13 216 0.0 0.0 0.00 0.00 0.00 76 1017.4
20260509151545 13 212 0.0 0.0 0.00 0.00 0.00 76 1017.3
20260509150042 13 141 0.0 0.0 0.00 0.00 0.00 77 1017.2
20260509144540 13 182 0.0 0.0 0.00 0.00 0.00 78 1017.1
20260509143040 13 161 0.0 0.0 0.00 0.00 0.00 78 1017.0
20260509141536 13 176 0.0 0.0 0.00 0.00 0.00 79 1016.6
20260509140034 12 178 0.0 0.0 0.00 0.00 0.00 79 1016.6
20260509134532 12 173 0.0 0.0 0.00 0.00 0.00 79 1016.6
20260509133032 12 172 0.0 0.0 0.00 0.00 0.00 79 1016.6
20260509131529 12 167 0.0 0.0 0.00 0.00 0.00 79 1016.5
20260509130036 11 360 0.0 0.0 0.00 0.00 0.00 79 1016.6
20260509124530 11 136 0.0 0.0 0.00 0.00 0.00 79 1016.5
20260509123025 11 360 0.0 0.0 0.00 0.00 0.00 79 1016.5
20260509121634 11 360 0.0 0.0 0.00 0.00 0.00 79 1016.7
20260509120024 11 149 0.0 0.0 0.00 0.00 0.00 79 1016.7
20260509114523 11 148 0.0 0.0 0.00 0.00 0.00 78 1016.8
20260509113025 11 360 0.0 0.0 0.00 0.00 0.00 78 1016.8
20260509111520 11 360 0.0 0.0 0.00 0.00 0.00 78 1016.6
20260509110020 10 147 0.0 0.0 0.00 0.00 0.00 78 1016.4
20260509104520 10 144 0.0 0.0 0.00 0.00 0.00 78 1016.1
20260509103021 10 145 0.0 0.0 0.00 0.00 0.00 77 1016.2
20260509101524 10 147 0.0 0.0 0.00 0.00 0.00 77 1016.2
20260509100022 10 147 0.0 0.0 0.00 0.00 0.00 77 1016.1
20260509094516 10 153 0.0 0.0 0.00 0.00 0.00 77 1016.1
20260509093017 10 152 0.0 0.0 0.00 0.00 0.00 77 1016.3
20260509091513 10 155 0.0 0.0 0.00 0.00 0.00 77 1016.5
20260509090020 10 153 0.0 0.0 0.00 0.00 0.00 77 1016.4
20260509084515 10 153 0.0 0.0 0.00 0.00 0.00 76 1016.5
20260509083028 10 150 0.0 0.0 0.00 0.00 0.00 76 1016.8
20260509081511 10 150 0.0 0.0 0.00 0.00 0.00 75 1016.9
20260509080008 10 360 0.0 0.0 0.00 0.00 0.00 74 1017.0
20260509074506 10 148 0.0 0.0 0.00 0.00 0.00 74 1017.0
20260509073005 11 150 0.0 0.0 0.00 0.00 0.00 72 1017.0
20260509071503 11 138 0.0 0.0 0.00 0.00 0.00 73 1016.9
20260509070004 11 132 0.0 0.0 0.00 0.00 0.00 71 1016.8
20260509064503 11 126 0.0 0.0 0.00 0.00 0.00 69 1016.7
20260509063003 11 130 0.0 0.0 0.00 0.00 0.00 68 1016.9
20260509061604 11 126 0.0 0.0 0.00 0.00 0.00 67 1017.0
20260509060108 11 133 0.0 0.0 0.00 0.00 0.00 68 1017.6